Newport, AR

2:56 AM CDT on June 25, 2017 (GMT -0500)
Newport

Weather History for KM19 - January, 2013

Change the Weather History Date:

Friday, January 25, 2013

  Actual Average (KBVX) Record (KBVX)
Temperature  
Mean Temperature 38 °F -  
Max Temperature 46 °F 51 °F 71 °F (1967)
Min Temperature 30 °F 28 °F 3 °F (1963)
Degree Days  
Heating Degree Days 27    
Moisture  
Dew Point 31 °F    
Average Humidity 80    
Maximum Humidity 93    
Minimum Humidity 63    
Precipitation  
Precipitation 0.03 in - - ()
Sea Level Pressure  
Sea Level Pressure 30.21 in    
Wind  
Wind Speed 6 mph (NNW)    
Max Wind Speed 10 mph    
Max Gust Speed -    
Visibility 10 miles    
Events Snow    
Averages and records for this station are not official NWS values.
T = Trace of Precipitation, MM = Missing Value Source: NWS Daily Summary

Daily Weather History Graph

Daily Weather History Graph

Search for Another Location

Airport or City:

Trip Planner

Search our weather history database for the weather conditions in past years. The results will help you decide how hot, cold, wet, or windy it might be!

Date:

Astronomy

Jan. 25, 2013 Rise Set
Actual Time 7:09 AM CST 5:25 PM CST
Civil Twilight 6:42 AM CST 5:52 PM CST
Nautical Twilight 6:11 AM CST 6:23 PM CST
Astronomical Twilight 5:40 AM CST 6:53 PM CST
Moon 4:22 PM CST 5:48 AM CST
Length of Visible Light 11h 10m
Length of Day
10h 16m
Waxing Gibbous, 98% of the Moon is Illuminated
Jan 25
Waxing Gibbous
Jan 26
Full
Feb 3
Last Quarter
Feb 10
New
Feb 17
First Quarter

Hourly Weather History & Observations

Time (CST) Temp. Windchill Dew Point Humidity Pressure Visibility Wind Dir Wind Speed Gust Speed Precip Events Conditions
12:56 AM 32.9 °F 27.5 °F 26.1 °F 76% 30.22 in 10.0 mi NNE 5.8 mph - N/A   Overcast
1:56 AM 32.9 °F 26.7 °F 26.1 °F 76% 30.19 in 10.0 mi NNE 6.9 mph - N/A   Overcast
2:56 AM 32.9 °F 28.5 °F 27.1 °F 79% 30.16 in 10.0 mi North 4.6 mph - N/A   Overcast
3:56 AM 32.0 °F 24.8 °F 27.1 °F 82% 30.15 in 10.0 mi NNW 8.1 mph - 0.00 in   Overcast
4:56 AM 32.0 °F 23.6 °F 26.1 °F 79% 30.14 in 10.0 mi NNW 10.4 mph - 0.00 in   Overcast
5:56 AM 30.2 °F 21.3 °F 28.4 °F 93% 30.16 in 4.0 mi NNW 10.4 mph - N/A Snow Light Snow
6:56 AM 31.1 °F 24.5 °F 27.1 °F 85% 30.17 in 10.0 mi NNW 6.9 mph - 0.03 in   Overcast
7:56 AM 31.1 °F 26.4 °F 28.0 °F 88% 30.19 in 9.0 mi West 4.6 mph - 0.00 in Snow Light Snow
8:56 AM 31.1 °F 24.5 °F 27.1 °F 85% 30.21 in 10.0 mi Variable 6.9 mph - 0.00 in   Overcast
9:15 AM 32.0 °F - 28.4 °F 87% 30.21 in 9.0 mi Calm Calm - N/A   Overcast
9:56 AM 32.9 °F 29.8 °F 29.1 °F 86% 30.23 in 10.0 mi NNW 3.5 mph - N/A   Overcast
10:56 AM 34.9 °F 30.8 °F 29.1 °F 79% 30.23 in 10.0 mi WNW 4.6 mph - N/A   Clear
11:56 AM 39.9 °F - 32.0 °F 73% 30.20 in 10.0 mi North - - N/A   Clear
12:56 PM 43.9 °F 40.5 °F 32.9 °F 65% 30.19 in 10.0 mi NNW 5.8 mph - N/A   Clear
1:56 PM 45.9 °F 42.3 °F 36.0 °F 68% 30.18 in 10.0 mi Variable 6.9 mph - N/A   Clear
2:56 PM 46.9 °F - 34.9 °F 63% 30.19 in 10.0 mi Variable 5.8 mph - N/A   Clear
3:56 PM 45.9 °F 41.7 °F 36.0 °F 68% 30.19 in 10.0 mi North 8.1 mph - N/A   Clear
4:56 PM 43.9 °F 40.5 °F 36.9 °F 76% 30.20 in 10.0 mi NNW 5.8 mph - N/A   Clear
5:56 PM 43.0 °F 40.3 °F 36.0 °F 76% 30.22 in 10.0 mi Variable 4.6 mph - N/A   Clear
6:56 PM 41.0 °F - 36.9 °F 85% 30.23 in 10.0 mi Calm Calm - N/A   Clear
7:56 PM 39.9 °F 34.5 °F 34.9 °F 82% 30.23 in 10.0 mi South 8.1 mph - N/A   Clear
8:56 PM 37.9 °F 33.5 °F 34.9 °F 89% 30.24 in 10.0 mi SSW 5.8 mph - N/A   Clear
9:56 PM 38.8 °F 36.5 °F 34.9 °F 86% 30.26 in 10.0 mi SW 3.5 mph - N/A   Clear
10:56 PM 38.8 °F - 34.9 °F 86% 30.27 in 10.0 mi Calm Calm - N/A   Clear
11:56 PM 36.0 °F - 34.0 °F 93% 30.28 in 10.0 mi Calm Calm - N/A   Clear